Meteopurmerend
purmerend
Purmerend - Baaienwijk



My webcam  My webcam


Onweer radar Meer informatie blitzortung!


Regen radar Meer informatie rain snow radar


Bezoek onze andere website:

CandyAppleRed WebdesignWebdesign Purmerend Candy Apple Red

MeteopurmerendBlog

Template documentation
and downloads



Het weer levert geen direct gevaar op.    Er zijn geen waarschuwingen afgegeven.

15 daagse weersverwachting Liverpool (GB)

  • Overzicht
  • Per uur
  • 15 dagen
  • Extra
  • Vergelijk
  • Kaarten
  • Dagkaart
  • Meer »
  • Info
  • Statistieken
  • Directe link
    Temp 6h Neerslag Wind  
 05:24     21:14    Daglengte: 15:50 Vandaag
07:00
15°
1.2 mm
6
13:00
16°
6.8 mm
4
warningclass
19:00
16°
23.1 mm
6
 05:26     21:12    Daglengte: 15:46 Morgen
01:00
15°
28.9 mm
6
07:00
14°
16.2 mm
8
13:00
16°
 
9
19:00
16°
 
7
 05:28     21:10    Daglengte: 15:42 Vrijdag 30 Jul
01:00
15°
 
3
07:00
14°
18.9 mm
3
13:00
17°
35.0 mm
4
19:00
17°
43.2 mm
5
 05:29     21:08    Daglengte: 15:39 Zaterdag 31 Jul
01:00
15°
50.5 mm
4
Locatie info
Region: England
Latitude: 53.4101°N
Longitude: -2.9784°E
30 masl
Postcode: L3 8
Temp/Neerslag /Baro Onweer/Dauwpunt
    Temp Baro 1h Neerslag Dauwpunt Wind UV Bewolking  
 05:24     21:14    Daglengte: 15:50 Vandaag
07:00
15°
1004.3 hPa 1.2 mm
48%
12.5°
6
Windvlaag: 1.6 m/s
80%
08:00
15°
1004.3 hPa
68%
11.3°
5
Windvlaag: 2.3 m/s
54%
09:00
16°
1004.2 hPa
75%
9.4°
4
Windvlaag: 2.4 m/s
34%
10:00
17°
1004.1 hPa 0.9 mm
82%
8.1°
4
Windvlaag: 2.6 m/s
22%
11:00
17°
1003.7 hPa 1.5 mm
82%
9.1°
4
Windvlaag: 1.7 m/s
62%
12:00
16°
1003.5 hPa 2.1 mm
82%
10.9°
4
Windvlaag: 2.4 m/s
72% warningclass
13:00
16°
1003.4 hPa 2.3 mm
82%
11.2°
4
Windvlaag: 3.6 m/s
71% warningclass
14:00
16°
1003.2 hPa 2.4 mm
82%
11.3°
3
Windvlaag: 3.5 m/s
61%
15:00
17°
1002.9 hPa 3.5 mm
82%
10.7°
4
Windvlaag: -0 m/s
75% warningclass
16:00
16°
1002.8 hPa 3.8 mm
82%
11.2°
5
Windvlaag: 0.6 m/s
72% warningclass
17:00
16°
1002.9 hPa 4.6 mm
82%
10.6°
5
Windvlaag: 2.4 m/s
74% warningclass
18:00
16°
1003.0 hPa 4.4 mm
80%
10.0°
6
Windvlaag: 2.5 m/s
76%
19:00
16°
1003.1 hPa 4.3 mm
77%
10.4°
6
Windvlaag: 2.5 m/s
34%
20:00
15°
1003.1 hPa 4.6 mm
73%
10.4°
6
Windvlaag: 2.6 m/s
75%
21:00
15°
1003.5 hPa 4.5 mm
74%
10.8°
7
Windvlaag: 4 m/s
77%
22:00
14°
1003.6 hPa 4.9 mm
75%
11.2°
7
Windvlaag: 4.3 m/s
73%
23:00
14°
1003.7 hPa 5.0 mm
74%
11.7°
7
Windvlaag: 4.5 m/s
82%
 05:26     21:12    Daglengte: 15:46 Morgen
00:00
15°
1003.9 hPa 5.0 mm
74%
11.9°
6
Windvlaag: 3.3 m/s
69%
01:00
15°
1004.1 hPa 4.9 mm
74%
11.4°
6
Windvlaag: -1.8 m/s
62%
02:00
14°
1004.4 hPa 5.4 mm
75%
10.5°
6
Windvlaag: 1.3 m/s
73%
03:00
14°
1004.7 hPa 5.6 mm
74%
9.9°
6
Windvlaag: 1.1 m/s
62%
04:00
15°
1004.9 hPa 5.3 mm
74%
10.3°
8
Windvlaag: 1.3 m/s
34%
05:00
14°
1005.2 hPa
73%
9.1°
8
Windvlaag: 3.2 m/s
34%
06:00
14°
1005.3 hPa
72%
9.6°
7
Windvlaag: 3.6 m/s
29%
07:00
14°
1005.6 hPa
68%
9.5°
8
Windvlaag: 5.2 m/s
25%
08:00
14°
1005.7 hPa
23%
9.4°
9
Windvlaag: 5 m/s
8%
09:00
15°
1006.1 hPa
17%
10.1°
9
Windvlaag: 4 m/s
10%
10:00
15°
1006.3 hPa
14%
11.6°
9
Windvlaag: 3.3 m/s
10%
11:00
16°
1006.6 hPa
16%
12.4°
9
Windvlaag: 3.4 m/s
18%
12:00
16°
1006.7 hPa
58%
12.8°
9
Windvlaag: 3.3 m/s
20%
13:00
16°
1006.8 hPa
24%
13.3°
9
Windvlaag: 3 m/s
46%
14:00
17°
1007.0 hPa
61%
13.5°
9
Windvlaag: 2.5 m/s
75%
15:00
16°
1007.2 hPa
65%
13.4°
9
Windvlaag: 2.5 m/s
85%
16:00
16°
1007.3 hPa
68%
13.4°
8
Windvlaag: 1.6 m/s
86%
17:00
16°
1007.4 hPa
68%
13.2°
8
Windvlaag: 1.6 m/s
84%
18:00
16°
1007.3 hPa
67%
13.1°
7
Windvlaag: 2.2 m/s
86%
19:00
16°
1007.4 hPa
66%
13.1°
7
Windvlaag: 2 m/s
86%
20:00
16°
1007.4 hPa
28%
13.1°
6
Windvlaag: 2.3 m/s
86%
21:00
16°
1007.4 hPa
58%
13.1°
5
Windvlaag: 2.3 m/s
76%
22:00
16°
1007.6 hPa
55%
12.9°
4
Windvlaag: 1.6 m/s
86%
23:00
16°
1007.5 hPa
14%
12.8°
4
Windvlaag: 2.3 m/s
73%
 05:28     21:10    Daglengte: 15:42 Vrijdag 30 Jul
00:00
16°
1007.3 hPa
17%
12.6°
3
Windvlaag: 3.6 m/s
79%
01:00
15°
1006.9 hPa
15%
12.6°
3
Windvlaag: 3.5 m/s
86%
02:00
15°
1006.4 hPa
23%
12.7°
2
Windvlaag: 2.8 m/s
86%
03:00
15°
1006.0 hPa
29%
12.6°
2
Windvlaag: 2.3 m/s
81%
04:00
14°
1004.7 hPa
99%
13.1°
1
Windvlaag: 1.9 m/s
93%
05:00
14°
1004.6 hPa 8.2 mm
100%
13.0°
2
Windvlaag: 1.6 m/s
96%
06:00
14°
1004.6 hPa 5.1 mm
100%
13.4°
2
Windvlaag: 0.7 m/s
97%
07:00
14°
1004.6 hPa 5.6 mm
100%
13.3°
3
Windvlaag: -0.2 m/s
95%
08:00
15°
1004.6 hPa 6.3 mm
100%
12.6°
3
Windvlaag: -1.3 m/s
100%
09:00
15°
1004.9 hPa 6.7 mm
100%
11.5°
2
Windvlaag: -1.5 m/s
99%
10:00
15°
1004.9 hPa 6.4 mm
100%
11.2°
1
Windvlaag: -1.5 m/s
98%
11:00
16°
1005.1 hPa 5.6 mm
100%
10.8°
1
Windvlaag: -0.6 m/s
95%
12:00
16°
1005.2 hPa 5.0 mm
100%
10.6°
2
Windvlaag: 0 m/s
87%
13:00
17°
1005.2 hPa 4.9 mm
100%
10.3°
4
Windvlaag: -2.4 m/s
84%
14:00
17°
1005.2 hPa 5.1 mm
100%
10.6°
5
Windvlaag: -2.3 m/s
88%
15:00
17°
1005.4 hPa 5.0 mm
100%
10.4°
5
Windvlaag: -2.4 m/s
92%
16:00
17°
1005.6 hPa 8.2 mm
100%
11.1°
5
Windvlaag: -1.9 m/s
95%
17:00
17°
1005.7 hPa 8.3 mm
100%
11.4°
6
Windvlaag: -1.8 m/s
87%
18:00
17°
1006.1 hPa 8.4 mm
100%
11.7°
6
Windvlaag: -1.7 m/s
82%
19:00
17°
1006.2 hPa 8.3 mm
100%
12.0°
5
Windvlaag: -1.4 m/s
74%
20:00
16°
1006.1 hPa 8.3 mm
100%
11.6°
5
Windvlaag: -1.3 m/s
70%
21:00
16°
1006.3 hPa 8.4 mm
100%
12.7°
5
Windvlaag: -1 m/s
75%
22:00
16°
1006.6 hPa 8.4 mm
100%
13.1°
4
Windvlaag: -0.8 m/s
66%
23:00
16°
1006.7 hPa 8.7 mm
100%
13.2°
4
Windvlaag: -0.4 m/s
41%
 05:29     21:08    Daglengte: 15:39 Zaterdag 31 Jul
00:00
16°
1006.8 hPa 8.5 mm
100%
13.4°
4
Windvlaag: -0.3 m/s
67%
01:00
15°
1006.8 hPa 8.2 mm
91%
13.4°
4
Windvlaag: -0.3 m/s
71%
02:00
16°
1006.5 hPa 8.1 mm
90%
14.3°
4
Windvlaag: 8 m/s
73%
03:00
16°
1006.5 hPa
83%
15.0°
4
Windvlaag: 8.1 m/s
53%
04:00
16°
1006.4 hPa
29%
15.1°
4
Windvlaag: 7.4 m/s
52%
05:00
16°
1006.4 hPa
23%
15.1°
5
Windvlaag: 5.9 m/s
50%
06:00
16°
1006.6 hPa
24%
15.1°
4
Windvlaag: 7 m/s
62%
Temp/Neerslag /Baro Onweer/Dauwpunt
    Temp Baro Neerslag Dauwpunt Wind Bewolking  
 05:24     21:14    Daglengte: 15:50 Vandaag
07:00
15°
1004.3 hPa 1.2 mm 12.5°
6
80%
10:00
17°
1004.1 hPa 0.9 mm 8.1°
4
22%
13:00
16°
1003.4 hPa 5.9 mm 11.2°
4
71% warningclass
16:00
16°
1002.8 hPa 9.7 mm 11.2°
5
72% warningclass
19:00
16°
1003.1 hPa 13.4 mm 10.4°
6
34%
22:00
14°
1003.6 hPa 14.0 mm 11.2°
7
73%
 05:26     21:12    Daglengte: 15:46 Morgen
01:00
15°
1004.1 hPa 14.9 mm 11.4°
6
62%
04:00
15°
1004.9 hPa 16.2 mm 10.3°
8
34%
07:00
14°
1005.6 hPa   9.5°
8
25%
10:00
15°
1006.3 hPa   11.6°
9
10%
13:00
16°
1006.8 hPa   13.3°
9
46%
16:00
16°
1007.3 hPa   13.4°
8
86%
19:00
16°
1007.4 hPa   13.1°
7
86%
22:00
16°
1007.6 hPa   12.9°
4
86%
 05:28     21:10    Daglengte: 15:42 Vrijdag 30 Jul
01:00
15°
1006.9 hPa   12.6°
3
86%
04:00
14°
1004.7 hPa   13.1°
1
93%
07:00
14°
1004.6 hPa 18.9 mm 13.3°
3
95%
10:00
15°
1004.9 hPa 19.3 mm 11.2°
1
98%
13:00
17°
1005.2 hPa 15.6 mm 10.3°
4
84%
16:00
17°
1005.6 hPa 18.3 mm 11.1°
5
95%
19:00
17°
1006.2 hPa 24.9 mm 12.0°
5
74%
22:00
16°
1006.6 hPa 25.1 mm 13.1°
4
66%
 05:29     21:08    Daglengte: 15:39 Zaterdag 31 Jul
01:00
15°
1006.8 hPa 25.5 mm 13.4°
4
71%
04:00
16°
1006.4 hPa 8.1 mm 15.1°
4
52%
07:00
16°
1006.9 hPa   14.6°
4
54%
10:00
16°
1008.5 hPa 17.5 mm 13.9°
5
1%
13:00
17°
1009.1 hPa 17.6 mm 13.3°
5
1%
16:00
17°
1009.0 hPa 17.6 mm 13.3°
6
1%
19:00
17°
1008.9 hPa 17.6 mm 12.0°
5
1%
22:00
15°
1009.3 hPa 17.7 mm 11.4°
4
1%
 05:31     21:07    Daglengte: 15:36 Zondag 01 Aug
01:00
13°
1009.5 hPa 17.7 mm 9.1°
4
1%
04:00
13°
1009.3 hPa 17.7 mm 9.3°
5
1%
07:00
13°
1009.8 hPa 17.7 mm 8.4°
4
1%
10:00
14°
1010.7 hPa 17.8 mm 8.9°
4
1%
13:00
15°
1011.5 hPa 17.8 mm 10.8°
4
1%
16:00
17°
1011.7 hPa 17.8 mm 10.2°
2
1%
19:00
16°
1012.1 hPa 17.9 mm 11.2°
4
1%
22:00
14°
1013.2 hPa 18.0 mm 10.4°
3
0%
 05:32     21:05    Daglengte: 15:33 Maandag 02 Aug
01:00
13°
1013.5 hPa 18.1 mm 9.6°
2
0%
04:00
12°
1014.0 hPa 18.1 mm 9.2°
2
0%
07:00
13°
1014.5 hPa 18.2 mm 9.8°
2
0%
10:00
15°
1015.1 hPa 18.2 mm 9.8°
2
1%
13:00
17°
1015.0 hPa 18.2 mm 10.2°
3
1%
16:00
17°
1014.6 hPa 18.2 mm 10.2°
4
0%
19:00
16°
1014.3 hPa 18.2 mm 10.3°
3
0%
22:00
13°
1014.7 hPa 18.2 mm 9.5°
2
0%
 05:34     21:03    Daglengte: 15:29 Dinsdag 03 Aug
01:00
12°
1014.6 hPa 18.2 mm 8.9°
0
0%
04:00
12°
1013.7 hPa 18.2 mm 8.7°
1
1%
07:00
13°
1013.4 hPa 18.2 mm 9.2°
1
1%
10:00
16°
1012.6 hPa 18.2 mm 10.0°
2
1%
13:00
20°
1011.1 hPa 18.2 mm 10.4°
2
1%
16:00
20°
1009.7 hPa 18.2 mm 9.7°
3
1%
19:00
18°
1009.3 hPa 18.2 mm 10.2°
3
1%
22:00
16°
1009.1 hPa 18.2 mm 9.8°
1
1%
 05:36     21:01    Daglengte: 15:25 Woensdag 04 Aug
01:00
16°
1008.0 hPa 18.2 mm 9.5°
2
1%
04:00
14°
1006.3 hPa   12.7°
4
1%
07:00
14°
1005.5 hPa 43.1 mm 12.3°
4
1%
13:00
20°
1003.6 hPa 46.5 mm 12.8°
3
1%
19:00
18°
1002.7 hPa 54.1 mm 14.0°
3
0%
 05:37     20:59    Daglengte: 15:22 Donderdag 05 Aug
01:00
14°
1002.6 hPa 56.2 mm 12.2°
1
1%
07:00
14°
1001.4 hPa 56.3 mm 12.3°
1
1%
13:00
17°
1001.6 hPa 59.1 mm 12.7°
4
1%
19:00
18°
1000.2 hPa 61.3 mm 11.3°
3
1%
 05:39     20:57    Daglengte: 15:18 Vrijdag 06 Aug
01:00
13°
999.3 hPa 61.6 mm 10.4°
3
1%
07:00
13°
997.7 hPa 61.7 mm 10.8°
2
1%
13:00
19°
997.3 hPa 62.2 mm 12.9°
3
1%
19:00
16°
999.0 hPa 64.4 mm 11.8°
8
1%
 05:41     20:55    Daglengte: 15:14 Zaterdag 07 Aug
01:00
15°
1006.9 hPa 0.3 mm 10.8°
3
60%
07:00
14°
1006.7 hPa 0.7 mm 10.7°
3
63%
13:00
16°
1007.0 hPa 1.1 mm 11.5°
4
72%
19:00
16°
1007.0 hPa 0.5 mm 11.6°
4
61%
 05:43     20:53    Daglengte: 15:10 Zondag 08 Aug
01:00
14°
1007.9 hPa 0.8 mm 10.8°
3
65%
07:00
14°
1007.6 hPa 1.6 mm 10.7°
3
65%
13:00
17°
1008.6 hPa 1.5 mm 11.7°
4
62%
19:00
17°
1009.3 hPa 1.2 mm 11.7°
4
54%
 05:44     20:51    Daglengte: 15:07 Maandag 09 Aug
01:00
14°
1011.1 hPa 1.6 mm 10.7°
3
52%
07:00
14°
1011.4 hPa 0.9 mm 10.7°
3
51%
13:00
17°
1012.8 hPa 0.4 mm 11.7°
5
61%
19:00
17°
1013.8 hPa 0.9 mm 11.5°
4
57%
 05:46     20:49    Daglengte: 15:03 Dinsdag 10 Aug
01:00
14°
1016.1 hPa 0.4 mm 10.7°
3
56%
07:00
14°
1016.6 hPa 0.3 mm 10.6°
3
61%
13:00
17°
1017.4 hPa 0.8 mm 11.4°
4
63%
19:00
16°
1017.7 hPa 0.6 mm 11.5°
4
53%
 05:48     20:47    Daglengte: 14:59 Woensdag 11 Aug
01:00
14°
1019.0 hPa 0.2 mm 10.7°
3
46%
07:00
14°
1018.4 hPa 0.3 mm 10.4°
2
51%
13:00
17°
1017.6 hPa 0.3 mm 12.1°
4
66%
19:00
17°
1016.4 hPa 0.7 mm 12.1°
3
62%
 05:49     20:45    Daglengte: 14:56 Donderdag 12 Aug
01:00
15°
1017.1 hPa 1.0 mm 11.8°
3
65%
  CAPE Lifted Index Hail Supercell Tornado SRH 3km CL BTM PRES CL TOP PRES Swiss DWD icon SMHI TS
 05:24     21:14    Daglengte: 15:50 Vandaag
07:00 138 J/kg 0.7 K 0 % 0 % 0 % 0 m²/s² 0 0 3.16 3
08:00 166 J/kg 0.5 K 0 % 0 % 0 % 0 m²/s² 0 0 3.02 3
09:00 215 J/kg -0.2 K 0 % 0 % 0 % 0 m²/s² 0 0 2.26 3
10:00 298 J/kg -0.9 K 0 % 0 % 0 % 0 m²/s² 0 0 1.02 80
11:00 274 J/kg -0.7 K 0 % 0 % 0 % 0 m²/s² 0 0 -0.7 80
12:00 612 J/kg -2.8 K 0 % 0 % 0 % 0 m²/s² 0 0 -1.66 95
13:00 481 J/kg -2.6 K 0 % 0 % 0 % 0 m²/s² 0 0 -2.24 95
14:00 560 J/kg -3.0 K 0 % 0 % 0 % 0 m²/s² 0 0 -1.68 80
15:00 679 J/kg -3.3 K 0 % 0 % 0 % 0 m²/s² 0 0 -2.16 95
16:00 512 J/kg -2.7 K 0 % 0 % 0 % 0 m²/s² 0 0 -2.07 95
17:00 1 J/kg 2.0 K 0 % 0 % 0 % 0 m²/s² 0 0 2.72 95
18:00 134 J/kg -0.2 K 0 % 0 % 0 % 0 m²/s² 0 0 1.12 80
19:00 124 J/kg -0.2 K 0 % 0 % 0 % 0 m²/s² 0 0 0.43 2
20:00 220 J/kg -1.5 K 0 % 0 % 0 % 0 m²/s² 0 0 -0.84 80
21:00 429 J/kg -2.3 K 0 % 0 % 0 % 0 m²/s² 0 0 -1.82 80
22:00 277 J/kg -1.4 K 0 % 0 % 0 % 0 m²/s² 0 0 -1.13 80
23:00 361 J/kg -2.1 K 0 % 0 % 0 % 0 m²/s² 0 0 -1.62 80
 05:26     21:12    Daglengte: 15:46 Morgen
00:00 360 J/kg -2.1 K 0 % 0 % 0 % 0 m²/s² 0 0 -0.96 80
01:00 271 J/kg -1.7 K 0 % 0 % 0 % 0 m²/s² 0 0 0.01 80
02:00 352 J/kg -1.8 K 0 % 0 % 0 % 0 m²/s² 0 0 -0.57 80
03:00 364 J/kg -1.9 K 0 % 0 % 0 % 0 m²/s² 0 0 -1.15 80
04:00 105 J/kg -0.6 K 0 % 0 % 0 % 0 m²/s² 0 0 1.08 80
05:00 53 J/kg 0.0 K 0 % 0 % 0 % 0 m²/s² 0 0 2.46 80
06:00 1 J/kg 1.2 K 0 % 0 % 0 % 0 m²/s² 0 0 4.2 3
07:00 0 J/kg 2.6 K 0 % 0 % 0 % 0 m²/s² 0 0 5.36 3
08:00 0 J/kg 3.5 K 0 % 0 % 0 % 0 m²/s² 0 0 5.39 2
09:00 2 J/kg 3.8 K 0 % 0 % 0 % 0 m²/s² 0 0 6.23 1
10:00 7 J/kg 3.5 K 0 % 0 % 0 % 0 m²/s² 0 0 6.89 1
11:00 5 J/kg 3.5 K 0 % 0 % 0 % 0 m²/s² 0 0 6.89 2
12:00 1 J/kg 3.8 K 0 % 0 % 0 % 0 m²/s² 0 0 6.8 3
13:00 16 J/kg 3.0 K 0 % 0 % 0 % 0 m²/s² 0 0 5.31 3
14:00 74 J/kg 1.8 K 0 % 0 % 0 % 0 m²/s² 0 0 3.78 3
15:00 83 J/kg 1.1 K 0 % 0 % 0 % 0 m²/s² 0 0 2.72 3
16:00 120 J/kg 0.4 K 0 % 0 % 0 % 0 m²/s² 0 0 1.48 3
17:00 107 J/kg 0.5 K 0 % 0 % 0 % 0 m²/s² 0 0 1.43 3
18:00 81 J/kg 0.7 K 0 % 0 % 0 % 0 m²/s² 0 0 1.66 3
19:00 120 J/kg 0.3 K 0 % 0 % 0 % 0 m²/s² 0 0 1.08 3
20:00 156 J/kg 0.2 K 0 % 0 % 0 % 0 m²/s² 0 0 0.89 3
21:00 167 J/kg 0.1 K 0 % 0 % 0 % 0 m²/s² 0 0 0.79 3
22:00 130 J/kg 0.3 K 0 % 0 % 0 % 0 m²/s² 0 0 0.72 3
23:00 116 J/kg 0.5 K 0 % 0 % 0 % 0 m²/s² 0 0 0.83 3
 05:28     21:10    Daglengte: 15:42 Vrijdag 30 Jul
00:00 113 J/kg 0.3 K 0 % 0 % 0 % 0 m²/s² 0 0 0.72 3
01:00 78 J/kg 0.5 K 0 % 0 % 0 % 0 m²/s² 0 0 1.1 3
02:00 65 J/kg 0.6 K 0 % 0 % 0 % 0 m²/s² 0 0 1.11 3
03:00 36 J/kg 0.9 K 0 % 0 % 0 % 0 m²/s² 0 0 1.5 3
04:00 20 J/kg 0.9 K 0 % 0 % 0 % 0 m²/s² 0 0 1.53 3
05:00 35 J/kg 1.1 K 0 % 0 % 0 % 0 m²/s² 0 0 1.82 61
06:00 40 J/kg 1.5 K 0 % 0 % 0 % 0 m²/s² 0 0 2.28 61
07:00 47 J/kg 1.0 K 0 % 0 % 0 % 0 m²/s² 0 0 1.81 61
08:00 140 J/kg 0.3 K 0 % 0 % 0 % 0 m²/s² 0 0 1.11 61
09:00 131 J/kg 0.8 K 0 % 0 % 0 % 0 m²/s² 0 0 1.73 61
10:00 100 J/kg 1.0 K 0 % 0 % 0 % 0 m²/s² 0 0 1.93 61
11:00 72 J/kg 1.2 K 0 % 0 % 0 % 0 m²/s² 0 0 2.25 61
12:00 81 J/kg 1.0 K 0 % 0 % 0 % 0 m²/s² 0 0 2.17 61
13:00 65 J/kg 0.8 K 0 % 0 % 0 % 0 m²/s² 0 0 2.03 61
14:00 65 J/kg 0.5 K 0 % 0 % 0 % 0 m²/s² 0 0 1.67 61
15:00 62 J/kg 0.5 K 0 % 0 % 0 % 0 m²/s² 0 0 1.58 80
16:00 28 J/kg 0.4 K 0 % 0 % 0 % 0 m²/s² 0 0 1.57 80
17:00 25 J/kg 0.4 K 0 % 0 % 0 % 0 m²/s² 0 0 1.66 80
18:00 44 J/kg 0.4 K 0 % 0 % 0 % 0 m²/s² 0 0 1.78 80
19:00 31 J/kg 0.7 K 0 % 0 % 0 % 0 m²/s² 0 0 2.14 80
20:00 0 J/kg 1.4 K 0 % 0 % 0 % 0 m²/s² 0 0 3.02 80
21:00 9 J/kg 0.8 K 0 % 0 % 0 % 0 m²/s² 0 0 2.48 80
22:00 19 J/kg 0.7 K 0 % 0 % 0 % 0 m²/s² 0 0 2.38 80
23:00 30 J/kg 0.6 K 0 % 0 % 0 % 0 m²/s² 0 0 2.34 80
 05:29     21:08    Daglengte: 15:39 Zaterdag 31 Jul
00:00 29 J/kg 0.9 K 0 % 0 % 0 % 0 m²/s² 0 0 2.64 80
01:00 7 J/kg 1.2 K 0 % 0 % 0 % 0 m²/s² 0 0 3 80
02:00 4 J/kg 1.1 K 0 % 0 % 0 % 0 m²/s² 0 0 2.72 3
03:00 32 J/kg 0.8 K 0 % 0 % 0 % 0 m²/s² 0 0 2.03 3
04:00 26 J/kg 0.8 K 0 % 0 % 0 % 0 m²/s² 0 0 1.88 3
05:00 54 J/kg 1.0 K 0 % 0 % 0 % 0 m²/s² 0 0 2.08 3
06:00 42 J/kg 1.4 K 0 % 0 % 0 % 0 m²/s² 0 0 2.51 3
Temp Baro Wind Neerslag
  EWN Forecast EWN WRFDA DWD ICON FMI HIRLAM MET Norway GFS
 05:24     21:14    Daglengte: 15:50 Vandaag
07:00 15.1° 1004.3 hPa 5.5 m/s 1.2 mm 14.7° 1003.4 hPa 4.8 m/s 2.8 mm 15.7° 1004.3 hPa 5.2 m/s 0.4 mm 14.7° 1004.5 hPa 5.6 m/s 0.0 mm 14.1° 1004.2 hPa 3.7 m/s
10:00 16.5° 1004.1 hPa 3.8 m/s 0.9 mm 16.9° 1003.4 hPa 4.4 m/s 8.4 mm 16.0° 1004.4 hPa 4.0 m/s 1.0 mm 17.5° 1004.2 hPa 3.8 m/s 0.0 mm 16.1° 1003.7 hPa 4.3 m/s
13:00 16.3° 1003.4 hPa 3.8 m/s 5.9 mm 16.7° 1002.3 hPa 4.2 m/s 16.2 mm 16.1° 1003.9 hPa 3.5 m/s 2.9 mm 17.5° 1003.5 hPa 3.9 m/s 0.0 mm 17.3° 1003.0 hPa 4.5 m/s
16:00 16.4° 1002.8 hPa 4.6 m/s 9.7 mm 15.7° 1002.0 hPa 5.2 m/s 35.8 mm 16.0° 1003.7 hPa 4.5 m/s 3.7 mm 17.4° 1002.8 hPa 4.8 m/s 0.0 mm 16.7° 1002.6 hPa 6.2 m/s
19:00 15.5° 1003.1 hPa 6.4 m/s 13.4 mm 15.4° 1002.2 hPa 6.1 m/s 58.6 mm 15.6° 1003.2 hPa 6.4 m/s 1.8 mm 16.4° 1003.3 hPa 6.2 m/s 0.0 mm 15.5° 1002.9 hPa 7.0 m/s
22:00 14.4° 1003.6 hPa 6.5 m/s 14.0 mm 14.2° 1002.7 hPa 4.4 m/s 61.0 mm 14.3° 1003.6 hPa 6.8 m/s 2.1 mm 15.0° 1004.5 hPa 4.9 m/s 0.0 mm 13.0° 1003.7 hPa 6.7 m/s
 05:26     21:12    Daglengte: 15:46 Morgen
01:00 14.5° 1004.1 hPa 6.1 m/s 14.9 mm 13.8° 1002.6 hPa 6.1 m/s 63.1 mm 14.4° 1004.1 hPa 6.5 m/s 2.4 mm 14.7° 1005.2 hPa 3.3 m/s 0.0 mm 12.8° 1003.9 hPa 8.0 m/s
04:00 14.6° 1004.9 hPa 7.7 m/s 16.2 mm 13.8° 1003.1 hPa 6.8 m/s 65.8 mm 14.2° 1005.0 hPa 6.0 m/s 2.0 mm 15.3° 1005.9 hPa 7.9 m/s 0.0 mm 12.5° 1004.4 hPa 7.1 m/s
07:00 13.9° 1005.6 hPa 8.0 m/s 0.0 mm 12.9° 1003.6 hPa 6.2 m/s 66.4 mm 14.4° 1005.6 hPa 6.8 m/s 0.5 mm 14.1° 1006.6 hPa 8.3 m/s 0.0 mm 12.9° 1004.7 hPa 7.7 m/s
10:00 15.2° 1006.3 hPa 9.3 m/s 0.0 mm 14.6° 1003.8 hPa 7.7 m/s 66.5 mm 16.2° 1006.5 hPa 7.5 m/s 0.0 mm 14.4° 1007.2 hPa 10.6 m/s 0.0 mm 14.2° 1005.1 hPa 8.4 m/s
13:00 16.3° 1006.8 hPa 9.3 m/s 0.0 mm 15.1° 1004.5 hPa 7.8 m/s 69.0 mm 17.2° 1006.8 hPa 8.0 m/s 0.0 mm 15.5° 1008.1 hPa 10.5 m/s 0.0 mm 14.4° 1005.8 hPa 8.2 m/s
16:00 16.2° 1007.3 hPa 8.3 m/s 0.0 mm 17.3° 1005.4 hPa 7.4 m/s 70.0 mm 16.8° 1006.9 hPa 7.4 m/s 0.1 mm 16.1° 1009.4 hPa 8.6 m/s 0.0 mm 15.5° 1006.0 hPa 6.8 m/s
19:00 16.4° 1007.4 hPa 6.7 m/s 0.0 mm 17.5° 1006.2 hPa 5.9 m/s 70.3 mm 16.5° 1007.0 hPa 5.7 m/s 0.3 mm 16.4° 1010.5 hPa 8.2 m/s 0.0 mm 16.5° 1006.4 hPa 5.6 m/s
22:00 16.0° 1007.6 hPa 4.4 m/s 0.0 mm 15.8° 1006.7 hPa 3.6 m/s 70.9 mm 16.3° 1006.8 hPa 4.0 m/s 0.0 mm 16.5° 1012.0 hPa 7.5 m/s 0.0 mm 14.9° 1007.5 hPa 4.0 m/s
 05:28     21:10    Daglengte: 15:42 Vrijdag 30 Jul
01:00 15.5° 1006.9 hPa 2.7 m/s 0.0 mm 15.0° 1007.0 hPa 2.9 m/s 71.1 mm 16.1° 1005.8 hPa 2.3 m/s 0.0 mm 15.8° 1012.3 hPa 5.5 m/s 0.0 mm 13.9° 1007.7 hPa 3.0 m/s
04:00 13.7° 1004.7 hPa 1.3 m/s 0.0 mm 13.4° 1006.3 hPa 1.8 m/s 71.3 mm 15.1° 1004.3 hPa 1.3 m/s 0.1 mm 13.9° 1007.4 hPa 2.8 m/s
07:00 14.2° 1004.6 hPa 2.7 m/s 18.9 mm 14.3° 1006.3 hPa 2.9 m/s 71.3 mm 13.8° 1004.0 hPa 1.5 m/s 2.2 mm 14.7° 1007.3 hPa 2.7 m/s
10:00 15.2° 1004.9 hPa 1.4 m/s 19.3 mm 16.8° 1006.4 hPa 4.1 m/s 71.5 mm 15.0° 1004.0 hPa 0.9 m/s 4.8 mm 16.3° 1007.3 hPa 3.1 m/s
13:00 16.9° 1005.2 hPa 4.3 m/s 15.6 mm 18.5° 1006.1 hPa 4.4 m/s 71.8 mm 16.7° 1004.0 hPa 2.5 m/s 1.0 mm 18.1° 1006.7 hPa 4.0 m/s
16:00 16.9° 1005.6 hPa 5.5 m/s 18.3 mm 18.4° 1005.7 hPa 5.6 m/s 71.8 mm 16.8° 1004.8 hPa 3.5 m/s 0.7 mm 18.1° 1006.5 hPa 5.3 m/s
19:00 16.6° 1006.2 hPa 5.4 m/s 24.9 mm 17.2° 1006.3 hPa 5.2 m/s 71.8 mm 16.7° 1005.5 hPa 4.1 m/s 1.5 mm 16.5° 1007.0 hPa 5.6 m/s
22:00 15.9° 1006.6 hPa 4.4 m/s 25.1 mm 15.9° 1006.4 hPa 4.0 m/s 71.8 mm 16.4° 1006.3 hPa 3.7 m/s 1.7 mm 14.9° 1007.5 hPa 5.3 m/s
 05:29     21:08    Daglengte: 15:39 Zaterdag 31 Jul
01:00 15.3° 1006.8 hPa 4.4 m/s 25.5 mm 15.0° 1006.5 hPa 3.2 m/s 71.8 mm 16.5° 1006.6 hPa 4.3 m/s 2.3 mm 15.1° 1007.8 hPa 4.9 m/s
04:00 16.0° 1006.4 hPa 4.4 m/s 8.1 mm 14.6° 1005.7 hPa 3.4 m/s 71.8 mm 16.3° 1006.6 hPa 4.6 m/s 0.3 mm 14.6° 1007.4 hPa 5.1 m/s
07:00 16.1° 1006.9 hPa 4.5 m/s 0.0 mm 15.4° 1006.3 hPa 4.6 m/s 71.8 mm 16.2° 1007.1 hPa 4.4 m/s 0.0 mm 14.8° 1008.0 hPa 5.4 m/s
10:00 16.2° 1008.5 hPa 5.4 m/s 17.5 mm 16.2° 1008.5 hPa 5.4 m/s 17.5 mm
13:00 17.3° 1009.1 hPa 5.4 m/s 17.6 mm 17.3° 1009.1 hPa 5.4 m/s 17.6 mm
16:00 17.5° 1009.0 hPa 5.8 m/s 17.6 mm 17.5° 1009.0 hPa 5.8 m/s 17.6 mm
19:00 16.7° 1008.9 hPa 4.7 m/s 17.6 mm 16.7° 1008.9 hPa 4.7 m/s 17.6 mm
22:00 15.2° 1009.3 hPa 4.3 m/s 17.7 mm 15.2° 1009.3 hPa 4.3 m/s 17.7 mm
 05:31     21:07    Daglengte: 15:36 Zondag 01 Aug
01:00 13.2° 1009.5 hPa 4.4 m/s 17.7 mm 13.2° 1009.5 hPa 4.4 m/s 17.7 mm
04:00 13.0° 1009.3 hPa 4.8 m/s 17.7 mm 13.0° 1009.3 hPa 4.8 m/s 17.7 mm
07:00 13.1° 1009.8 hPa 3.8 m/s 17.7 mm 13.1° 1009.8 hPa 3.8 m/s 17.7 mm
10:00 14.0° 1010.7 hPa 4.0 m/s 17.8 mm 14.0° 1010.7 hPa 4.0 m/s 17.8 mm
13:00 15.3° 1011.5 hPa 3.6 m/s 17.8 mm 15.3° 1011.5 hPa 3.6 m/s 17.8 mm
16:00 16.8° 1011.7 hPa 2.4 m/s 17.8 mm 16.8° 1011.7 hPa 2.4 m/s 17.8 mm
19:00 16.0° 1012.1 hPa 3.5 m/s 17.9 mm 16.0° 1012.1 hPa 3.5 m/s 17.9 mm
22:00 13.7° 1013.2 hPa 3.2 m/s 18.0 mm 13.7° 1013.2 hPa 3.2 m/s 18.0 mm
 05:32     21:05    Daglengte: 15:33 Maandag 02 Aug
01:00 13.1° 1013.5 hPa 1.8 m/s 18.1 mm 13.1° 1013.5 hPa 1.8 m/s 18.1 mm
04:00 11.9° 1014.0 hPa 2.2 m/s 18.1 mm 11.9° 1014.0 hPa 2.2 m/s 18.1 mm
07:00 12.9° 1014.5 hPa 1.9 m/s 18.2 mm 12.9° 1014.5 hPa 1.9 m/s 18.2 mm
10:00 15.2° 1015.1 hPa 2.1 m/s 18.2 mm 15.2° 1015.1 hPa 2.1 m/s 18.2 mm
13:00 17.3° 1015.0 hPa 2.5 m/s 18.2 mm 17.3° 1015.0 hPa 2.5 m/s 18.2 mm
16:00 17.3° 1014.6 hPa 3.8 m/s 18.2 mm 17.3° 1014.6 hPa 3.8 m/s 18.2 mm
19:00 16.1° 1014.3 hPa 3.2 m/s 18.2 mm 16.1° 1014.3 hPa 3.2 m/s 18.2 mm
22:00 13.0° 1014.7 hPa 1.6 m/s 18.2 mm 13.0° 1014.7 hPa 1.6 m/s 18.2 mm
 05:34     21:03    Daglengte: 15:29 Dinsdag 03 Aug
01:00 12.0° 1014.6 hPa 0.5 m/s 18.2 mm 12.0° 1014.6 hPa 0.5 m/s 18.2 mm
04:00 11.9° 1013.7 hPa 0.5 m/s 18.2 mm 11.9° 1013.7 hPa 0.5 m/s 18.2 mm
07:00 12.9° 1013.4 hPa 1.2 m/s 18.2 mm 12.9° 1013.4 hPa 1.2 m/s 18.2 mm
10:00 16.2° 1012.6 hPa 1.9 m/s 18.2 mm 16.2° 1012.6 hPa 1.9 m/s 18.2 mm
13:00 19.6° 1011.1 hPa 1.9 m/s 18.2 mm 19.6° 1011.1 hPa 1.9 m/s 18.2 mm
16:00 20.4° 1009.7 hPa 2.7 m/s 18.2 mm 20.4° 1009.7 hPa 2.7 m/s 18.2 mm
19:00 17.8° 1009.3 hPa 2.9 m/s 18.2 mm 17.8° 1009.3 hPa 2.9 m/s 18.2 mm
22:00 15.8° 1009.1 hPa 1.1 m/s 18.2 mm 15.8° 1009.1 hPa 1.1 m/s 18.2 mm
 05:36     21:01    Daglengte: 15:25 Woensdag 04 Aug
01:00 16.0° 1008.0 hPa 2.3 m/s 18.2 mm 16.0° 1008.0 hPa 2.3 m/s 18.2 mm
04:00 13.8° 1006.3 hPa 3.6 m/s 21.0 mm 13.8° 1006.3 hPa 3.6 m/s 21.0 mm
07:00 13.9° 1005.5 hPa 4.1 m/s 22.2 mm 13.9° 1005.5 hPa 4.1 m/s 22.2 mm
13:00 20.0° 1003.6 hPa 3.4 m/s 23.6 mm 20.0° 1003.7 hPa 3.4 m/s 23.6 mm
19:00 18.3° 1002.7 hPa 2.6 m/s 27.7 mm 18.3° 1002.7 hPa 2.6 m/s 27.7 mm
 05:37     20:59    Daglengte: 15:22 Donderdag 05 Aug
01:00 14.1° 1002.6 hPa 0.8 m/s 28.1 mm 14.1° 1002.6 hPa 0.8 m/s 28.1 mm
07:00 14.4° 1001.4 hPa 0.8 m/s 28.2 mm 14.4° 1001.4 hPa 0.8 m/s 28.2 mm
13:00 17.3° 1001.6 hPa 4.1 m/s 30.0 mm 17.3° 1001.6 hPa 4.1 m/s 30.0 mm
19:00 17.7° 1000.2 hPa 3.1 m/s 30.8 mm 17.7° 1000.2 hPa 3.1 m/s 30.8 mm
 05:39     20:57    Daglengte: 15:18 Vrijdag 06 Aug
01:00 13.4° 999.3 hPa 2.8 m/s 30.8 mm 13.4° 999.3 hPa 2.8 m/s 30.8 mm
07:00 13.4° 997.7 hPa 1.6 m/s 30.8 mm 13.4° 997.7 hPa 1.6 m/s 30.8 mm
13:00 18.9° 997.3 hPa 2.8 m/s 31.4 mm 18.9° 997.3 hPa 2.8 m/s 31.4 mm
19:00 16.2° 999.0 hPa 8.1 m/s 32.2 mm 16.2° 999.0 hPa 8.1 m/s 32.2 mm
 05:41     20:55    Daglengte: 15:14 Zaterdag 07 Aug
01:00 14.6° 1006.9 hPa 2.8 m/s 0.3 mm
07:00 13.9° 1006.7 hPa 2.9 m/s 0.7 mm
13:00 16.3° 1007.0 hPa 4.3 m/s 1.1 mm
19:00 16.1° 1007.0 hPa 3.8 m/s 0.5 mm
 05:43     20:53    Daglengte: 15:10 Zondag 08 Aug
01:00 14.2° 1007.9 hPa 3.4 m/s 0.8 mm
07:00 13.7° 1007.6 hPa 3.2 m/s 1.6 mm
13:00 16.7° 1008.6 hPa 4.2 m/s 1.5 mm
19:00 16.7° 1009.3 hPa 4.3 m/s 1.2 mm
 05:44     20:51    Daglengte: 15:07 Maandag 09 Aug
01:00 14.3° 1011.1 hPa 2.7 m/s 1.6 mm
07:00 13.8° 1011.4 hPa 2.6 m/s 0.9 mm
13:00 16.7° 1012.8 hPa 4.9 m/s 0.4 mm
19:00 16.5° 1013.8 hPa 4.1 m/s 0.9 mm
 05:46     20:49    Daglengte: 15:03 Dinsdag 10 Aug